NOAA 17 DEB

Satellite information

Favourite Embed

Satellite Type and Status

DEBRISIN ORBIT

Key statistics

Satellite NOAA 17 DEB at a glance.

Uptime

8354

Days in orbit

Revolutions

≈ 14.4

Per day

Orbit

SSO

Sun Synchronous Orbit

Inclination

98.7

Latest

Satellite identification and parameters

Extended collection of information and parameters for NOAA 17 DEB.

Object identification

Identified? True

Debris? True

Object name: NOAA 17 DEB

International designator: 2002-032CF

Object number (NORAD): 48746

Object ID (CCSDS): 48746

Country: UNITED STATES OF AMERICA (US)

Current information (Y/N): Y

RCS size: SMALL

Orbital parameters

Period: 99.666 minutes

Inclination: 98.7478 deg

SMA: 7120.735 km

Apoapsis: 777.856 km

Periapsis: 707.343 km

RAAN: 81.0287 deg

Eccentricy: 0.0049512

Argument of periapsis: 76.8879 deg

Mean anomaly: 283.783 deg

Mean motion: 14.44826061 rev/day

Mean motion (dot): 0.00016083 rev/day2

B* drag term: 0.00456 1/REarth

Two-line elements (TLE)

Creation date: May 7, 2025, 10:56 p.m.

Reference frame: TEME

Reference center: EARTH

Epoch: May 6, 2025, 7:22 a.m. UTC

TLE line 0: 0 NOAA 17 DEB

TLE line 1: 1 48746U 02032CF 25126.30755719 .00016083 00000-0 45600-2 0 9994

TLE line 2: 2 48746 98.7478 81.0287 0049512 76.8879 283.7830 14.44826061213627

Live tracking on map

Real-time ground track for satellite NOAA 17 DEB.

In-orbit conjunctions

A list of the most updated potential collisions computed for object NOAA 17 DEB.

Target Orbit TCA Probability of collision Miss distance Type
NOAA 16 DEB SSO 2024-06-14 03:54:04 0.0003683492 55.0 (m) DEBRIS

Associated space launch

NOAA M carried weather imagers and microwave and infrared sounders, as well as a SARSAT search-and-rescue package. It had an on-orbit mass of 1475 kg.

NOAA 17 DEB was lifted into orbit during the mission ‘Titan II SLV | NOAA 17’, on board a Titan II SLV space rocket.

The launch took place on June 24, 2002, 6:23 p.m. from Space Launch Complex 4W.

For more information about the launch, click the button.

Launch to space Titan II SLV | NOAA 17
Titan II SLV | NOAA 17

Agency: N/A

Status: Launch Successful

Launch date: June 24, 2002, 6:23 p.m. UTC

Rocket: Titan II SLV

Launch pad: Space Launch Complex 4W

Location: Vandenberg SFB, CA, USA

...

Latest news about this satellite

There are no fresh news available about this satellite. Check back as we update our databases every day.


Newsletter sign-up

Weekly statistics, charts and insights to help you stay on top of the space industry.